Location: Palomar Mountain Lodge
(33.3110°N, 116.8495°W)
Time: 08:22:43
(UTC-07:00)

Cosmos 1709 Rocket - Pass Details

Date: 19 May 2017
Orbit: 949 x 1001 km, 82.9° (Epoch: 21 May)

Event Time Altitude Azimuth Distance (km) Brightness Sun altitude
Rises 21:19:39 0° 350° (N) 3,700 7.8 -17.8°
Reaches altitude 10° 21:22:13 10° 348° (NNW) 2,741 7.1 -18.2°
Maximum altitude 21:28:25 66° 267° (W) 1,055 4.3 -19.2°
Enters shadow 21:33:46 14° 188° (S) 2,414 5.7 -20.0°
